Tel Aviv, Israel

8:48 PM IDT on October 20, 2017 (GMT +0300)
Ben Gurion

Weather History for LLBG - June, 2017

Change the Weather History Date:

Monday, June 19, 2017

  Actual Average Record
Temperature  
Mean Temperature 80 °F -  
Max Temperature 90 °F 86 °F 96 °F (2004)
Min Temperature 70 °F 70 °F 68 °F (1997)
Cooling Degree Days 15    
Growing Degree Days 30 (Base 50)    
Moisture  
Dew Point 65 °F    
Average Humidity 59    
Maximum Humidity 83    
Minimum Humidity 31    
Precipitation  
Precipitation 0.00 in - - ()
Sea Level Pressure  
Sea Level Pressure 29.81 in    
Wind  
Wind Speed 5 mph ()    
Max Wind Speed 15 mph    
Max Gust Speed -    
Visibility 6.1 miles    
Events      
Averages and records for this station are not official NWS values.
T = Trace of Precipitation, MM = Missing Value Source: Averaged Metar Reports

Daily Weather History Graph

Daily Weather History Graph

Search for Another Location

Airport or City:

Trip Planner

Search our weather history database for the weather conditions in past years. The results will help you decide how hot, cold, wet, or windy it might be!

Date:

Astronomy

Jun. 19, 2017 Rise Set
Actual Time 5:34 AM IDT 7:49 PM IDT
Civil Twilight 5:06 AM IDT 8:17 PM IDT
Nautical Twilight 4:31 AM IDT 8:52 PM IDT
Astronomical Twilight 3:54 AM IDT 9:29 PM IDT
Moon 1:50 AM IDT (6/19) 2:35 PM IDT (6/19)
Length of Visible Light 15h 11m
Length of Day
14h 14m
Waning Crescent, 30% of the Moon is Illuminated
Jun 19
Waning Crescent
Jun 24
New
Jul 1
First Quarter
Jul 9
Full
Jul 16
Last Quarter

Hourly Weather History & Observations

Time (IDT) Temp. Heat Index Dew Point Humidity Pressure Visibility Wind Dir Wind Speed Gust Speed Precip Events Conditions
12:00 AM 77 °F - 71 °F 75% 29.82 in 6 mi 2.3 mph - -   Scattered Clouds
12:20 AM 77.0 °F - 69.8 °F 78% 29.80 in 6.2 mi Variable 3.5 mph - N/A   Partly Cloudy
12:50 AM 75.2 °F - 69.8 °F 83% 29.80 in - Variable 3.5 mph - N/A   Clear
1:20 AM 75.2 °F - 69.8 °F 83% 29.80 in - Variable 1.2 mph - N/A   Clear
1:50 AM 75.2 °F - 69.8 °F 83% 29.80 in - Variable 2.3 mph - N/A   Clear
2:20 AM 73.4 °F - 68.0 °F 83% 29.80 in 6.2 mi Variable 1.2 mph - N/A   Partly Cloudy
2:50 AM 75.2 °F - 68.0 °F 78% 29.80 in 6.2 mi Variable 2.3 mph - N/A   Partly Cloudy
3:00 AM 73 °F - 67 °F 78% 29.80 in 6 mi 2.3 mph - -   Scattered Clouds
3:20 AM 73.4 °F - 68.0 °F 83% 29.80 in - Variable 3.5 mph - N/A   Clear
3:50 AM 73.4 °F - 66.2 °F 78% 29.80 in - Variable 3.5 mph - N/A   Clear
4:20 AM 73.4 °F - 66.2 °F 78% 29.77 in - Variable 2.3 mph - N/A   Clear
4:50 AM 71.6 °F - 66.2 °F 83% 29.80 in - Variable 1.2 mph - N/A   Clear
5:20 AM 71.6 °F - 66.2 °F 83% 29.80 in - Variable 1.2 mph - N/A   Clear
5:50 AM 71.6 °F - 62.6 °F 73% 29.80 in - Variable 2.3 mph - N/A   Clear
6:00 AM 72 °F - 64 °F 68% 29.80 in 6 mi 3.5 mph - -  
6:20 AM 73.4 °F - 62.6 °F 69% 29.80 in - Variable 3.5 mph - N/A   Clear
6:50 AM 73.4 °F - 60.8 °F 65% 29.80 in - SE 4.6 mph - N/A   Clear
7:20 AM 75.2 °F - 62.6 °F 65% 29.80 in - Variable 3.5 mph - N/A   Clear
7:50 AM 78.8 °F - 59.0 °F 51% 29.80 in - Variable 3.5 mph - N/A   Clear
8:20 AM 80.6 °F 80.8 °F 57.2 °F 45% 29.80 in - Variable 2.3 mph - N/A   Clear
8:50 AM 84.2 °F 83.8 °F 59.0 °F 42% 29.80 in - Variable 2.3 mph - N/A   Clear
9:00 AM 84 °F - 58 °F 31% 29.80 in 6 mi 2.3 mph - -  
9:20 AM 86.0 °F 85.4 °F 59.0 °F 40% 29.80 in - Variable 2.3 mph - N/A   Clear
9:50 AM 87.8 °F 86.5 °F 57.2 °F 35% 29.80 in - WSW 4.6 mph - N/A   Clear
10:20 AM 89.6 °F 87.7 °F 55.4 °F 31% 29.80 in - WSW 4.6 mph - N/A   Clear
10:50 AM 87.8 °F 89.4 °F 64.4 °F 46% 29.80 in - WNW 9.2 mph - N/A   Clear
11:20 AM 89.6 °F 91.1 °F 64.4 °F 43% 29.80 in - West 9.2 mph - N/A   Clear
11:50 AM 87.8 °F 89.4 °F 64.4 °F 46% 29.80 in - West 11.5 mph - N/A   Clear
12:00 PM 88 °F - 64 °F 34% 29.81 in 6 mi WNW 11.5 mph - -  
12:20 PM 87.8 °F 88.5 °F 62.6 °F 43% 29.80 in - WNW 12.7 mph - N/A   Clear
12:50 PM 87.8 °F 89.4 °F 64.4 °F 46% 29.80 in - WNW 13.8 mph - N/A   Clear
1:20 PM 89.6 °F 91.1 °F 64.4 °F 43% 29.80 in - WNW 13.8 mph - N/A   Clear
1:50 PM 87.8 °F 89.4 °F 64.4 °F 46% 29.80 in - WNW 15.0 mph - N/A   Clear
2:20 PM 87.8 °F 89.4 °F 64.4 °F 46% 29.80 in - WNW 15.0 mph - N/A   Clear
2:50 PM 89.6 °F 89.5 °F 60.8 °F 38% 29.80 in - West 15.0 mph - N/A   Clear
3:00 PM 88 °F - 63 °F 33% 29.79 in 6 mi West 15.0 mph - -  
3:20 PM 86.0 °F 87.3 °F 64.4 °F 48% 29.80 in - NW 15.0 mph - N/A   Clear
3:50 PM 86.0 °F 88.2 °F 66.2 °F 51% 29.80 in - WNW 13.8 mph - N/A   Clear
4:50 PM 84.2 °F 85.6 °F 64.4 °F 51% 29.80 in - NNW 12.7 mph - N/A   Clear
5:20 PM 84.2 °F 85.6 °F 64.4 °F 51% 29.80 in - NW 10.4 mph - N/A   Clear
5:50 PM 84.2 °F 85.6 °F 64.4 °F 51% 29.80 in - NW 9.2 mph - N/A   Clear
6:00 PM 84 °F - 65 °F 44% 29.81 in 6 mi NW 9.2 mph - -  
6:20 PM 82.4 °F 84.6 °F 66.2 °F 58% 29.80 in - NW 9.2 mph - N/A   Clear
6:50 PM 82.4 °F 84.6 °F 66.2 °F 58% 29.83 in - NW 10.4 mph - N/A   Clear
7:20 PM 80.6 °F 82.7 °F 66.2 °F 61% 29.83 in - WNW 8.1 mph - N/A   Clear
7:50 PM 80.6 °F 82.3 °F 64.4 °F 58% 29.83 in - NNW 6.9 mph - N/A   Clear
8:20 PM 80.6 °F 82.7 °F 66.2 °F 61% 29.83 in - NW 5.8 mph - N/A   Clear
8:50 PM 78.8 °F - 66.2 °F 65% 29.83 in - NW 4.6 mph - N/A   Clear
9:00 PM 80 °F - 66 °F 54% 29.84 in 6 mi NNW 4.6 mph - -  
9:20 PM 78.8 °F - 66.2 °F 65% 29.83 in - North 4.6 mph - N/A   Clear
9:50 PM 78.8 °F - 66.2 °F 65% 29.83 in - NNW 4.6 mph - N/A   Clear
10:20 PM 78.8 °F - 68.0 °F 69% 29.86 in - Variable 2.3 mph - N/A   Clear
10:50 PM 78.8 °F - 68.0 °F 69% 29.86 in - North 4.6 mph - N/A   Clear
11:20 PM 77.0 °F - 68.0 °F 74% 29.86 in - Variable 2.3 mph - N/A   Clear
11:50 PM 77.0 °F - 68.0 °F 74% 29.83 in - WNW 5.8 mph - N/A   Clear